GEFSSE_500_meanwind_186.txt.gz
Wind_Speed
20 20 20 20 19 18 16 16 14 14 14 14 13 12 12 12 11 11 10 10 9 9 9 9 9 8 8 7 7 6 5 5 4 4 3 3 3 3 3 3 3 3 3
23 23 22 22 21 20 19 18 17 16 15 15 15 14 14 14 13 13 12 11 11 10 10 10 9 9 9 8 8 7 7 6 5 5 4 4 4 4 4 4 4 4 4
25 25 25 24 24 23 21 21 20 19 18 17 17 16 16 15 15 15 14 13 13 12 12 11 11 10 10 9 8 8 8 7 7 6 6 5 5 5 5 5 5 5 5
27 27 27 27 26 26 25 24 23 22 20 19 18 18 18 17 17 17 16 16 15 14 13 13 12 12 11 10 9 9 9 8 8 7 7 7 7 7 6 6 6 6 6
28 29 29 29 29 28 28 27 26 25 23 22 21 20 20 19 19 19 18 18 17 16 15 14 14 13 12 11 11 10 10 9 9 9 8 8 8 8 8 8 8 7 8
30 30 31 32 31 31 30 29 28 27 26 25 24 22 21 21 20 20 20 19 18 17 17 16 15 14 13 13 12 12 11 11 10 10 9 9 9 9 8 8 9 9 9
31 32 32 33 33 33 32 32 31 30 29 28 26 25 24 22 21 21 21 21 20 19 18 17 16 15 15 14 14 13 13 12 12 11 10 10 10 10 9 9 9 10 10
32 33 34 35 35 35 34 34 33 32 31 30 29 28 26 26 24 22 22 22 21 21 20 20 19 18 17 16 16 15 15 14 13 12 12 11 11 11 11 11 11 11 11
32 33 34 36 36 36 36 35 35 35 33 32 31 30 28 28 27 25 24 24 24 23 22 21 20 20 19 18 18 17 16 15 15 14 13 13 13 12 12 12 12 13 13
32 33 34 35 37 37 37 37 36 36 35 34 33 32 31 30 29 28 27 27 26 25 24 23 22 21 21 20 19 19 18 17 17 16 16 15 15 14 14 14 14 15 15
32 34 34 34 36 37 38 37 37 37 37 36 35 34 33 32 30 29 29 28 28 27 26 26 25 24 23 22 21 20 20 19 18 18 17 17 17 17 17 16 16 16 17
31 33 35 35 36 37 38 38 38 37 37 37 37 36 35 33 32 31 31 30 29 29 28 28 27 26 25 24 23 22 22 21 21 20 20 19 19 19 19 19 19 18 19
30 32 34 35 36 37 38 39 39 38 38 38 37 37 36 35 33 32 32 32 31 31 30 29 29 28 27 26 26 25 24 24 23 23 22 22 21 21 21 21 21 21 21
28 30 33 34 35 36 38 39 39 39 38 38 38 37 37 36 35 35 34 33 32 32 32 31 30 29 29 28 28 27 26 25 25 25 24 24 23 23 23 23 23 23 23
27 29 31 33 34 35 37 38 38 38 38 38 39 38 37 37 36 35 35 34 33 33 33 32 31 30 31 30 29 29 28 27 27 26 26 25 25 25 24 24 24 24 24
26 27 30 32 34 35 37 38 39 38 38 37 37 37 37 37 37 36 36 35 35 34 33 33 33 33 32 32 31 30 29 29 29 28 28 27 27 27 26 26 26 26 26
26 26 28 30 32 34 36 37 39 39 38 38 37 36 36 37 37 37 36 36 36 36 35 33 33 34 33 33 32 32 31 31 31 30 29 30 29 29 29 28 28 28 28
24 26 27 29 31 33 34 36 38 38 38 37 37 37 36 37 37 37 38 37 37 36 36 34 34 34 34 34 33 33 32 32 33 32 32 32 32 31 31 31 30 30 30
22 24 25 27 29 32 35 36 38 38 38 38 37 37 36 36 37 37 38 38 37 36 36 36 36 35 34 34 34 34 34 33 33 33 33 33 33 33 33 33 32 32 32
23 23 25 27 29 30 33 36 38 38 39 39 38 37 36 36 36 36 37 38 37 36 35 36 36 35 35 34 34 34 34 34 34 34 33 33 33 34 34 34 34 34 34
23 23 25 26 29 30 32 33 35 37 38 39 39 37 36 36 37 36 36 36 36 36 34 34 35 35 35 35 35 35 34 34 34 34 34 33 34 34 34 35 35 35 35
21 23 24 26 28 29 30 31 33 35 36 38 39 38 37 36 36 36 35 36 36 36 36 35 34 34 35 36 37 36 36 35 36 35 35 35 35 35 36 36 36 36 36
21 22 23 25 27 28 28 31 32 33 34 35 36 37 35 34 34 34 34 35 35 35 36 36 35 34 35 37 37 37 37 37 37 37 37 38 38 38 39 39 39 39 39
19 21 22 23 25 27 28 28 29 31 32 33 35 35 33 33 32 33 33 33 33 33 35 35 36 36 36 37 38 39 39 38 38 38 38 39 40 40 40 41 41 41 42
19 20 20 21 24 26 28 28 29 30 31 33 34 34 32 31 32 33 33 33 33 33 34 34 35 36 36 37 38 39 39 39 40 40 39 40 40 41 42 42 43 43 44
17 18 20 20 22 25 27 28 29 30 31 32 33 34 32 32 32 33 34 34 34 34 34 35 36 37 37 38 39 39 40 40 40 41 41 42 42 43 43 44 45 45 45

GEFSSE_500_meanwind_192.txt.gz
Wind_Speed
18 19 20 20 19 18 18 17 15 14 13 13 12 11 11 10 9 8 8 9 8 7 7 7 7 7 6 6 6 6 5 5 4 4 4 4 3 3 3 3 3 3 3
19 20 20 21 21 21 20 19 18 17 16 15 14 13 12 12 11 10 10 10 10 9 9 8 8 8 8 7 7 7 6 6 6 6 5 5 5 4 4 4 4 3 3
20 21 21 22 23 23 22 21 20 19 18 18 17 16 15 14 14 13 12 12 11 11 10 10 9 9 9 9 8 8 8 8 8 7 7 6 6 5 5 5 5 4 4
22 22 23 23 24 25 24 24 22 21 21 21 20 19 17 17 16 15 14 14 14 13 12 12 11 11 11 10 10 10 9 9 9 8 8 7 7 7 6 6 6 6 5
24 25 25 25 26 26 27 27 26 24 24 23 23 22 21 19 18 17 16 16 15 15 14 14 13 13 12 12 12 11 11 10 10 9 9 8 8 7 7 7 7 6 7
26 27 27 28 28 28 29 29 28 27 27 26 26 25 24 22 21 20 19 19 18 17 16 15 15 15 14 13 13 13 12 12 11 10 10 9 9 8 8 8 8 8 8
28 29 29 30 30 31 31 31 31 30 29 28 28 27 26 25 23 21 21 20 20 19 18 17 17 17 16 15 15 14 14 13 13 12 11 11 10 10 10 9 10 10 10
28 29 30 30 31 32 32 32 33 32 32 30 30 30 29 27 26 24 23 22 22 21 20 20 19 18 18 17 17 16 16 15 14 14 13 13 12 12 11 11 11 11 11
28 29 30 30 31 33 34 34 34 34 33 33 32 31 31 30 29 27 25 24 23 23 22 22 21 20 20 19 18 18 18 17 17 16 15 15 14 14 14 13 13 13 13
29 29 31 31 32 33 34 35 34 34 35 34 33 33 33 32 31 30 28 27 26 24 23 23 23 23 22 21 21 20 19 19 19 18 18 17 17 17 16 16 15 15 15
29 30 31 32 32 33 34 35 34 35 35 36 35 34 34 34 33 32 31 30 29 28 26 25 24 24 24 24 23 22 22 21 21 20 20 19 19 19 18 18 18 17 17
29 30 30 32 32 32 33 34 35 35 36 36 35 35 35 35 35 34 33 32 30 29 29 28 26 26 26 25 25 24 23 23 23 22 22 22 21 21 21 20 20 19 19
27 28 29 31 32 32 33 34 35 35 36 37 37 37 36 36 35 34 34 34 33 31 30 30 29 28 28 27 27 26 25 25 25 24 24 23 23 22 22 22 22 22 21
26 27 28 29 31 32 32 35 36 35 36 37 37 37 38 38 36 36 35 35 35 34 32 31 31 31 30 30 29 28 28 27 26 26 26 25 25 24 24 24 23 23 23
26 27 27 28 28 30 32 32 35 35 35 37 37 38 38 39 38 37 36 35 35 35 34 33 32 32 32 32 31 30 29 28 28 28 27 27 27 26 26 26 26 25 25
26 27 27 28 27 28 30 32 33 34 35 36 38 38 38 38 38 38 37 37 36 35 35 35 34 33 34 33 33 32 31 30 29 29 29 28 28 28 28 28 28 27 27
26 27 28 28 29 30 31 32 33 34 35 36 38 39 39 38 38 37 38 38 38 37 36 35 34 33 32 33 33 34 33 32 31 30 30 30 29 29 30 30 30 30 30
25 27 28 29 30 32 33 32 32 33 34 36 37 38 40 38 37 38 38 39 39 39 37 36 36 35 35 34 33 33 34 34 32 31 31 32 31 31 31 32 32 32 32
26 27 28 29 31 32 34 34 34 32 33 35 36 37 39 39 36 36 38 39 38 39 38 37 36 36 36 35 35 34 34 34 33 33 32 33 33 33 33 33 33 33 33
26 26 27 29 31 32 33 34 35 34 33 34 36 38 39 39 37 37 37 37 38 38 38 38 37 36 36 36 36 35 35 34 34 34 33 33 33 33 33 33 33 34 34
26 26 26 27 29 30 32 33 34 35 34 33 35 37 38 39 37 36 36 35 36 37 37 37 38 37 36 36 36 36 35 34 34 34 34 35 34 34 34 34 34 34 34
24 25 26 26 27 28 30 32 34 36 35 34 34 35 36 37 36 36 36 35 35 36 36 36 37 37 37 37 36 36 36 36 35 36 36 36 37 36 36 36 37 36 36
23 23 24 25 26 27 28 31 33 34 34 35 35 35 36 37 36 35 36 36 37 36 36 35 34 35 36 36 36 36 36 37 37 37 38 38 37 37 37 37 38 38 38
22 22 23 23 24 25 26 28 30 31 31 32 34 35 36 37 37 36 36 36 37 37 38 37 36 35 35 35 36 37 37 37 38 37 38 38 39 39 38 39 40 40 40
22 21 22 22 22 23 25 26 28 29 29 31 33 35 35 37 38 38 37 37 37 36 37 38 38 37 36 36 36 37 37 38 38 38 38 39 40 40 41 41 42 42 42
21 21 21 21 21 22 23 25 26 28 29 30 31 33 35 36 36 36 37 37 37 36 37 37 37 37 36 36 37 37 38 38 38 39 40 40 41 41 42 42 43 44 44

GEFSSE_500_meanwind_198.txt.gz
Wind_Speed
17 17 17 17 17 17 17 17 17 16 16 15 14 14 13 13 12 12 12 12 11 10 9 9 10 9 8 8 7 7 6 6 6 5 4 4 3 3 2 2 2 2 2
18 19 19 18 18 19 19 19 19 18 18 18 17 16 15 15 14 13 13 13 12 12 11 11 10 10 10 9 8 7 7 7 7 6 5 5 4 3 3 3 3 3 3
20 20 20 20 20 20 21 21 20 20 20 19 19 19 18 17 16 16 15 14 14 13 13 12 12 11 10 10 9 9 8 8 8 7 7 7 6 5 5 4 4 4 4
21 22 22 22 22 22 22 23 23 22 22 22 21 21 20 19 18 17 17 16 16 15 15 14 13 13 12 11 11 10 10 9 9 9 8 8 8 7 6 6 5 5 5
22 23 23 23 24 24 24 25 25 25 24 24 24 23 23 22 20 20 19 18 18 18 17 16 15 15 14 13 12 12 11 11 10 10 10 9 9 8 8 7 7 6 6
22 23 24 24 25 25 26 26 27 27 26 26 26 25 25 25 23 22 21 20 20 20 19 19 18 17 16 15 14 13 13 12 12 11 11 11 10 10 9 9 8 8 8
24 24 25 26 26 27 27 27 28 28 28 28 28 27 27 27 26 24 23 22 21 21 20 20 20 19 18 17 16 16 15 14 14 13 13 12 12 11 11 10 10 9 9
25 26 26 26 27 28 28 29 29 30 30 30 30 29 29 29 29 28 26 25 24 23 23 22 22 21 20 19 18 17 17 16 16 15 14 14 14 13 12 12 11 11 10
25 26 27 27 27 28 29 30 31 31 31 31 31 31 30 31 30 30 29 28 27 26 25 24 24 24 23 22 21 20 19 19 18 17 17 16 16 15 15 14 14 13 13
25 26 27 27 28 27 29 30 31 32 32 32 32 32 32 32 32 32 31 30 29 28 27 27 26 26 25 24 23 22 21 21 20 20 19 18 18 17 17 17 16 16 15
26 26 27 27 28 28 28 28 30 31 32 33 33 33 33 32 33 33 33 32 31 30 29 29 28 28 27 26 25 24 24 23 23 22 22 21 20 20 19 19 18 18 17
26 26 27 27 27 28 29 29 30 31 32 33 34 34 35 35 33 34 34 33 33 32 31 31 30 29 29 28 27 26 26 25 25 24 24 23 22 22 21 21 21 20 19
26 26 27 27 27 27 28 29 30 31 32 33 34 35 35 36 35 34 35 35 34 33 33 33 32 31 31 30 29 29 28 27 27 26 26 25 25 24 23 23 23 22 22
26 27 27 28 28 28 29 29 30 31 31 33 33 35 36 36 37 36 34 35 35 34 34 34 33 33 32 32 31 30 30 29 28 28 28 28 27 26 26 25 25 25 25
26 27 27 28 28 29 30 31 30 31 32 32 33 34 35 36 37 37 36 35 36 36 36 35 34 34 34 33 33 32 31 31 30 30 29 29 29 28 28 27 27 27 26
26 26 27 28 29 29 30 31 32 33 33 33 32 33 35 36 37 38 37 36 37 37 37 37 36 36 36 35 34 34 34 33 32 32 32 32 31 30 30 29 29 29 28
25 26 27 28 29 29 30 31 32 33 33 33 33 34 35 36 37 37 38 37 37 38 38 37 37 38 37 36 35 35 34 34 33 33 33 33 33 32 31 31 30 30 30
25 26 26 28 29 29 29 30 31 32 34 35 35 35 35 35 37 37 39 38 37 39 39 38 39 39 38 37 37 36 35 35 35 34 34 35 34 34 33 33 32 32 31
24 25 26 27 27 28 30 30 31 32 34 34 36 36 36 36 36 36 38 39 38 38 38 38 38 38 37 37 38 37 36 36 35 35 35 35 36 35 35 35 35 34 33
23 24 26 27 27 27 28 29 30 31 33 35 36 37 37 38 36 35 36 38 38 38 39 38 38 39 38 37 37 37 37 37 36 36 36 36 36 37 37 37 36 36 35
23 23 25 26 27 27 28 28 29 30 31 32 33 36 37 37 36 35 36 37 37 36 38 39 38 39 39 38 38 38 38 37 36 36 36 36 36 36 37 37 37 36 36
23 23 23 24 25 26 27 28 28 28 29 30 32 34 36 36 35 35 36 37 38 36 37 38 38 38 38 38 38 38 38 37 37 37 37 37 36 36 37 37 37 37 37
21 21 22 23 24 25 25 26 27 28 28 30 31 32 34 35 35 35 36 37 38 37 38 38 38 38 38 38 37 38 38 38 38 37 37 38 38 38 38 38 38 39 39
21 21 22 22 23 24 25 25 25 26 27 29 30 31 33 33 34 35 37 37 39 39 39 38 38 39 39 39 39 39 39 38 38 37 38 39 39 40 40 40 40 40 41
21 22 22 22 22 22 23 24 24 24 25 26 28 30 31 33 34 35 36 38 38 39 39 39 39 39 39 40 40 40 40 40 40 39 39 40 41 41 41 41 41 42 42
21 22 22 22 22 22 22 23 23 23 24 25 26 28 29 30 33 34 36 37 38 39 40 40 40 40 40 40 41 41 41 41 41 41 41 41 41 42 43 43 43 43 44

GEFSSE_500_meanwind_204.txt.gz
Wind_Speed
16 16 16 16 16 16 16 16 16 15 15 15 15 15 15 14 14 14 14 13 13 12 12 11 11 10 10 9 9 8 8 7 7 6 6 5 4 3 3 2 2 1 1
18 18 18 18 18 18 18 18 17 17 17 16 17 17 17 17 16 16 16 15 15 14 13 13 13 12 11 11 10 9 9 8 8 7 7 6 5 4 4 3 2 2 2
20 20 20 20 20 20 19 19 19 19 19 19 19 18 18 19 18 18 18 17 17 16 15 15 14 13 13 12 11 11 10 10 9 9 8 7 7 6 5 5 4 4 3
21 21 22 22 22 21 21 21 22 21 21 21 21 21 20 21 21 20 20 19 19 18 17 17 16 15 14 14 13 12 12 11 11 10 10 9 9 8 7 7 6 5 5
23 23 23 23 23 23 23 23 23 24 23 23 23 23 23 23 22 22 22 21 21 20 20 19 18 17 17 16 15 14 13 13 12 12 11 11 10 9 9 8 7 7 6
24 24 24 25 25 25 25 25 25 25 25 25 25 25 25 25 24 24 23 23 23 23 22 21 20 19 19 18 17 16 16 15 14 13 13 12 12 11 11 10 9 8 8
24 24 24 25 25 26 26 26 26 26 26 26 26 26 27 27 26 26 26 25 24 24 24 23 22 21 21 20 19 19 18 17 16 16 15 14 14 13 12 12 11 10 10
25 24 25 25 25 25 26 26 26 26 27 27 27 27 26 27 27 27 26 26 25 25 25 25 24 24 23 22 21 21 20 19 18 18 17 16 15 15 14 13 13 12 12
26 26 25 25 25 25 25 26 26 27 27 27 27 27 27 27 28 29 29 28 27 26 26 25 25 25 24 24 23 22 21 21 21 20 19 18 18 17 16 15 15 14 14
25 26 26 26 25 25 25 26 26 26 27 28 28 28 28 28 29 30 30 30 30 29 28 27 27 27 26 26 25 25 24 23 22 22 21 20 20 19 18 18 17 17 16
25 26 26 26 26 26 26 26 27 27 27 28 29 30 30 30 29 30 31 31 32 31 30 30 28 29 28 28 27 27 26 25 24 23 23 22 21 21 20 20 19 19 18
24 25 26 26 26 27 27 27 27 28 29 29 30 31 31 31 31 31 31 32 33 32 32 32 31 31 30 29 28 28 28 27 27 26 25 24 24 23 23 22 21 21 21
25 25 26 26 27 27 28 28 28 28 29 31 32 32 33 33 33 33 32 33 33 34 34 33 32 32 32 31 30 29 29 28 28 28 27 27 26 26 25 25 24 24 24
25 26 27 27 28 27 28 28 29 30 30 30 32 33 34 34 34 35 35 34 34 34 34 35 35 34 34 33 32 31 30 29 29 29 29 28 28 28 28 27 26 26 26
26 26 27 28 28 29 29 29 30 30 30 30 32 34 35 36 35 36 37 36 36 35 35 35 36 35 35 34 33 33 33 32 30 30 30 30 29 29 29 29 28 28 27
26 26 27 28 29 29 29 31 32 32 32 32 32 34 35 36 37 36 36 36 36 36 36 36 37 36 36 36 35 35 34 34 33 32 32 31 30 30 30 30 30 30 30
25 26 27 27 29 29 29 30 31 31 32 33 32 33 34 35 36 37 36 37 37 37 37 37 37 37 36 37 36 35 35 35 35 34 34 33 33 32 32 32 31 31 31
25 26 26 26 27 28 28 28 29 30 30 32 33 33 34 34 35 36 37 37 38 38 38 38 37 38 37 37 37 37 36 36 36 36 35 35 35 34 34 33 33 33 32
25 25 25 25 25 26 26 27 27 29 30 31 32 33 34 34 34 35 36 36 37 38 37 38 38 37 38 37 38 38 38 37 37 37 37 37 37 36 35 35 34 34 34
25 24 24 24 24 25 25 26 26 27 29 30 31 32 34 34 34 35 36 35 36 37 36 37 38 38 39 39 39 39 39 39 38 38 38 37 37 36 37 37 36 36 36
24 24 24 23 23 24 25 25 26 27 28 29 30 31 33 34 35 34 35 35 36 35 35 36 37 37 38 39 39 39 40 40 40 39 38 37 37 37 37 37 37 38 38
24 24 24 23 23 23 24 25 26 26 26 27 29 30 31 33 33 33 33 34 36 35 35 36 36 38 38 39 40 40 41 40 40 39 39 38 37 36 36 37 37 38 39
24 24 24 24 24 24 24 25 25 26 26 27 27 28 30 31 31 32 32 33 35 35 36 37 37 37 38 39 39 40 40 40 40 40 39 38 38 39 39 38 39 39 39
25 25 25 25 25 25 25 25 25 25 25 26 27 27 28 28 29 31 32 32 34 35 35 36 36 38 39 40 40 40 41 40 40 39 39 39 39 39 40 40 40 40 40
25 25 25 25 25 25 25 25 25 25 25 26 26 26 26 27 27 29 31 32 33 35 36 36 36 38 39 40 40 40 41 41 41 40 40 40 41 41 41 41 41 42 42
25 25 25 25 25 25 25 26 25 25 25 26 26 25 25 26 27 28 31 32 33 35 36 37 37 38 38 39 39 40 41 41 41 42 41 41 41 41 41 42 42 42 43

GEFSSE_500_meanwind_210.txt.gz
Wind_Speed
14 14 14 15 15 15 15 15 14 14 14 14 15 15 15 15 14 14 14 14 14 13 13 12 12 12 12 11 11 10 10 9 9 9 8 7 7 6 5 5 5 4 3
15 16 16 16 17 17 16 16 16 16 16 16 16 17 17 17 17 16 16 16 16 16 15 14 14 14 14 13 12 12 11 11 10 10 9 9 8 7 7 6 6 5 4
17 18 18 18 18 18 18 17 18 18 18 18 18 18 18 18 18 18 18 18 18 17 17 16 16 16 15 15 14 13 13 13 12 11 11 10 9 8 8 7 7 6 6
18 19 19 20 20 20 20 20 20 20 20 20 20 20 20 20 20 20 20 20 19 19 19 18 18 17 17 17 16 16 15 14 14 13 12 12 11 10 9 9 8 7 7
20 20 20 21 21 21 22 22 22 22 22 22 22 22 21 21 21 21 21 22 21 21 21 20 19 19 19 18 18 18 17 16 15 15 14 13 13 12 11 11 10 9 9
21 21 21 22 22 23 23 23 24 24 24 24 23 23 23 23 23 23 22 22 23 23 22 22 21 21 20 20 19 19 19 18 18 17 16 15 14 14 13 13 12 11 11
22 22 22 22 23 24 24 24 24 25 25 25 25 25 25 24 24 25 25 24 24 25 25 24 23 23 22 22 21 20 19 19 19 19 18 17 16 16 15 15 14 13 12
22 22 22 22 23 24 24 25 25 26 26 26 26 26 26 26 26 26 26 26 26 26 26 26 25 25 24 24 23 22 21 21 20 20 20 19 18 18 18 17 16 15 15
22 23 23 22 23 23 24 25 26 26 26 27 27 26 27 27 26 26 27 27 27 27 27 28 28 27 26 26 25 24 23 22 22 22 21 21 20 20 19 19 19 18 17
23 23 23 23 23 23 24 25 26 26 26 26 27 27 27 27 27 27 27 28 28 28 28 28 28 29 28 28 27 27 25 24 23 23 23 22 22 22 21 21 20 20 19
23 23 23 23 23 23 24 25 25 26 26 27 27 28 28 28 28 28 27 27 29 29 29 29 29 30 30 29 29 28 27 26 25 24 24 24 23 23 23 22 22 21 21
23 23 23 23 24 24 24 24 25 26 26 28 28 29 30 30 29 30 29 29 29 30 31 31 30 30 31 31 30 30 29 29 28 26 26 25 25 25 24 24 24 23 23
24 24 24 24 24 24 24 24 25 26 27 28 29 30 31 31 31 32 31 31 31 31 31 32 32 31 31 32 31 31 31 30 30 29 28 27 26 26 26 26 25 25 25
24 24 25 25 24 25 25 25 25 26 27 28 29 30 31 31 32 33 33 32 32 33 33 33 34 34 33 33 34 33 32 33 32 31 30 29 28 27 27 27 27 27 27
24 24 25 25 25 25 25 25 26 27 28 28 29 30 31 32 32 34 35 34 34 34 36 36 36 36 36 36 35 35 34 33 34 34 32 32 31 30 29 29 29 29 29
25 25 25 25 25 26 26 27 27 27 28 28 30 30 30 31 33 35 35 35 35 35 37 38 39 38 38 37 37 37 36 35 36 36 35 34 33 32 31 31 31 31 31
25 25 25 26 26 26 26 26 27 28 29 29 29 29 30 31 32 34 34 34 34 35 37 39 40 40 39 39 39 39 38 38 38 37 37 36 35 35 34 33 33 33 32
26 25 25 25 25 26 27 26 27 28 29 29 28 29 29 30 31 33 34 35 35 36 37 39 39 40 40 40 39 39 39 40 39 38 38 38 37 37 36 36 35 35 34
26 26 25 26 25 25 26 26 26 27 28 28 28 28 29 29 30 32 33 34 36 37 38 39 39 40 40 40 40 40 39 40 40 39 39 39 39 39 39 38 37 37 37
26 26 26 26 25 25 25 26 26 26 27 28 29 29 30 29 30 30 31 32 33 34 36 37 37 39 40 40 40 40 39 39 39 40 40 40 40 40 40 40 39 39 39
27 27 26 26 26 25 25 25 26 26 26 27 28 29 29 29 29 30 31 30 30 31 33 35 36 37 38 39 40 41 40 39 40 41 41 41 41 41 41 41 41 41 41
27 27 27 26 26 26 26 26 26 26 26 27 27 28 29 29 29 30 29 30 30 31 33 34 34 35 37 38 39 40 40 39 41 41 42 43 43 42 42 42 42 42 42
27 27 27 27 26 26 26 26 26 26 26 27 28 27 27 28 28 28 28 29 30 31 31 33 33 34 37 37 38 39 40 41 41 41 42 43 43 43 42 42 43 43 43
27 27 27 27 27 27 27 26 27 26 27 27 27 27 27 27 27 28 28 28 29 30 30 33 33 34 35 36 37 38 39 40 41 42 43 43 44 44 43 43 42 42 42
28 27 27 27 27 27 28 27 27 27 27 27 28 28 28 28 28 28 28 28 28 29 31 32 33 34 35 36 38 38 39 40 41 42 42 44 44 44 43 43 43 43 43
27 27 27 27 27 27 28 28 27 27 27 27 28 28 28 28 28 28 28 28 28 29 29 31 34 34 36 37 38 39 39 40 41 42 43 43 43 43 43 43 44 44 43

GEFSSE_500_meanwind_216.txt.gz
Wind_Speed
14 14 14 14 14 13 13 13 13 13 12 12 12 12 12 12 11 11 11 11 10 10 10 10 10 10 9 9 9 8 8 7 7 7 7 6 6 6 5 5 4 4 4
15 15 15 15 15 15 15 15 15 14 14 13 13 13 13 13 13 13 13 13 13 12 12 12 12 12 11 11 11 10 10 9 9 8 8 7 7 7 6 6 6 5 5
17 17 17 17 17 16 16 16 16 16 15 14 14 14 14 14 14 14 15 15 15 15 14 14 14 14 13 13 13 12 12 11 11 10 10 9 9 8 8 8 7 7 6
18 18 17 18 18 18 18 18 18 17 17 16 16 16 16 16 16 16 16 16 16 16 16 16 15 15 15 14 14 14 13 13 12 12 11 11 10 10 10 9 9 8 8
19 19 18 19 19 19 19 19 19 19 19 18 18 18 18 18 18 18 18 17 17 17 17 17 17 17 16 16 15 15 14 14 13 13 13 12 12 12 11 11 11 10 10
20 20 20 20 20 20 21 20 20 20 20 20 20 20 20 19 19 19 19 19 18 19 19 19 19 19 18 18 17 17 16 16 15 15 14 14 14 13 13 13 13 12 12
20 20 20 20 20 21 21 21 21 21 21 21 21 22 21 21 21 20 20 20 20 20 20 20 20 20 20 20 19 19 19 18 18 17 17 16 15 15 15 15 15 15 14
21 21 21 21 21 21 21 22 22 22 22 22 22 22 22 23 23 23 23 22 22 21 21 21 21 21 21 21 21 21 21 20 20 19 19 18 17 17 16 16 17 17 16
22 22 22 22 21 21 21 21 21 22 22 23 23 23 23 23 24 24 24 24 24 23 23 23 23 23 23 23 23 23 23 22 22 21 21 20 19 19 18 18 18 18 18
22 22 23 23 22 22 22 22 22 22 23 23 24 24 24 23 24 24 25 25 26 25 25 25 25 25 25 25 25 25 25 24 24 24 23 22 21 20 19 19 19 20 20
22 23 23 23 23 23 23 24 23 23 23 23 24 24 24 24 24 25 25 25 26 27 27 26 26 26 27 27 27 27 27 26 26 26 25 24 24 23 22 21 21 21 21
23 23 23 24 24 24 24 24 24 24 24 23 23 24 24 25 25 25 26 26 26 27 28 28 27 28 28 29 29 28 29 28 27 27 27 26 26 25 24 23 23 23 23
24 24 24 24 24 24 24 24 24 25 24 24 25 25 25 25 25 25 25 25 25 26 28 29 29 30 30 30 30 30 30 30 29 28 28 28 27 27 26 26 25 25 24
25 25 25 25 25 25 25 25 25 25 25 25 26 26 25 26 26 26 26 27 26 26 28 29 30 31 32 32 32 32 32 31 31 30 30 29 29 28 28 27 27 27 26
26 26 26 26 26 26 26 26 26 26 26 27 27 27 27 27 26 27 27 28 28 28 28 30 31 32 32 33 33 33 33 33 33 33 32 32 32 31 31 30 29 29 29
26 26 27 27 26 26 27 26 26 26 26 27 27 27 27 27 27 27 27 28 29 29 30 31 32 33 33 34 35 36 35 35 35 35 34 34 34 34 33 33 32 31 31
27 27 27 27 27 27 27 27 27 28 27 27 27 27 27 28 28 27 27 28 29 30 31 32 33 34 34 35 37 37 38 37 37 37 36 35 35 35 35 35 34 34 33
28 28 28 28 28 28 27 27 27 28 28 27 27 28 28 28 28 28 28 29 30 30 31 31 32 31 32 35 36 38 39 39 38 38 38 38 37 37 37 37 37 36 36
29 28 28 28 29 28 28 27 28 28 28 28 28 28 27 28 28 29 29 30 30 30 31 31 32 31 32 34 36 37 38 39 38 39 39 39 39 39 38 39 39 38 38
29 29 29 29 29 29 29 28 28 28 28 28 28 29 29 29 29 29 30 30 30 31 31 31 31 33 33 34 35 37 39 38 39 39 39 40 40 40 40 40 40 40 40
30 30 30 30 30 30 30 29 28 28 28 28 29 29 29 29 29 30 30 30 30 30 32 32 32 32 33 34 36 37 38 38 39 39 40 40 41 41 41 42 42 41 41
31 31 31 31 31 31 30 29 28 28 28 29 29 29 29 29 30 30 30 30 30 30 31 32 33 32 32 33 35 36 37 38 39 39 40 40 41 42 42 42 41 41 42
31 31 31 31 31 31 31 30 29 28 28 29 29 29 29 29 30 30 30 30 30 30 30 31 31 32 32 32 33 34 34 35 38 38 39 40 40 41 42 42 43 42 43
32 32 32 32 31 31 32 31 30 29 29 29 29 29 29 30 30 30 30 30 30 30 30 30 30 31 31 32 33 34 35 35 37 38 39 40 40 41 42 42 43 44 44
33 33 32 32 32 31 31 31 31 31 30 30 30 30 30 30 30 30 30 30 30 30 31 31 31 31 31 32 33 33 34 35 36 38 39 39 40 41 43 43 43 44 45
33 33 33 33 32 32 31 31 32 32 31 31 31 31 31 30 30 30 30 30 30 30 31 31 31 31 32 33 33 33 33 35 35 37 39 39 39 40 42 43 44 44 45

GEFSSE_500_meanwind_222.txt.gz
Wind_Speed
14 14 14 14 14 13 13 12 12 12 12 11 11 12 12 12 11 11 11 11 10 10 10 10 9 9 9 8 8 7 7 7 6 6 5 5 5 5 5 5 4 4 4
15 16 16 16 16 15 14 14 14 14 13 13 13 13 13 13 13 13 12 12 12 12 12 12 11 11 11 10 10 9 9 8 8 7 7 6 6 6 6 6 5 5 5
17 17 17 17 17 17 16 16 15 15 15 15 14 14 14 14 14 14 14 13 13 13 13 13 13 13 12 12 12 11 11 10 9 9 8 7 7 7 7 7 7 7 7
18 18 18 17 17 18 18 17 17 17 17 16 16 16 15 15 15 15 15 15 15 15 14 14 14 14 14 14 14 13 12 11 11 10 9 9 8 8 8 8 8 8 8
19 19 19 19 18 18 19 18 18 18 18 18 17 17 17 17 17 16 16 16 16 16 16 16 15 15 16 16 15 15 14 13 13 12 12 11 11 10 10 10 9 9 9
20 20 20 19 19 19 19 19 19 18 19 19 19 19 19 18 18 18 18 17 17 17 17 17 17 16 16 17 17 17 16 16 15 15 14 13 13 13 12 12 11 11 11
20 20 20 20 20 19 19 19 19 19 20 20 20 20 20 19 20 20 19 19 18 18 18 19 18 17 17 18 18 18 18 18 17 17 16 16 15 15 14 14 14 13 13
20 20 20 20 20 20 20 20 20 20 20 21 21 21 21 21 21 21 21 21 20 20 19 19 20 19 19 19 19 19 19 19 19 19 18 18 17 17 17 16 16 15 15
20 20 20 21 21 20 21 21 21 21 21 22 22 22 22 22 22 22 22 22 21 21 21 21 21 21 21 20 20 20 21 21 21 21 20 20 20 19 19 18 18 18 17
21 20 21 21 21 21 22 22 22 23 23 23 23 23 23 24 23 23 23 23 23 23 22 22 22 22 22 22 22 22 22 22 22 22 22 22 22 21 21 20 20 20 19
22 22 22 22 22 22 22 23 23 23 23 24 24 24 24 24 24 24 24 24 24 24 24 24 24 24 24 23 23 23 23 24 24 24 24 24 23 23 23 23 22 22 21
24 23 23 23 23 23 23 23 24 24 24 24 24 24 24 25 25 24 25 25 25 25 25 25 25 25 26 25 25 25 25 25 25 25 25 26 25 24 24 24 24 24 23
25 24 25 25 24 24 24 24 24 24 25 25 25 25 25 25 25 25 25 25 25 26 26 26 27 26 27 27 26 26 26 26 26 26 27 27 27 27 26 26 26 25 25
26 26 26 26 26 26 26 25 25 25 25 26 26 26 26 26 26 26 26 26 26 26 27 27 27 28 27 28 28 28 28 28 28 28 28 29 29 29 29 29 29 28 27
27 27 27 27 27 27 27 27 27 26 26 26 26 26 26 26 26 26 27 27 27 27 27 27 28 29 29 29 29 29 29 29 29 30 30 31 31 31 31 31 31 30 30
27 27 28 28 28 28 28 28 28 28 27 27 27 27 26 26 26 27 27 28 28 27 27 27 28 29 30 29 30 30 29 30 30 31 32 33 33 34 34 34 34 34 33
28 28 28 28 28 29 29 29 29 29 27 27 28 28 27 27 27 27 27 28 29 28 28 28 28 29 29 29 30 31 31 31 32 32 33 34 35 35 36 36 36 36 36
29 29 29 29 29 29 29 30 29 29 29 28 28 28 29 29 28 29 28 28 29 29 28 28 28 29 30 30 30 31 31 32 33 33 34 35 36 36 37 38 38 37 37
30 30 30 30 29 29 29 30 30 30 30 29 29 29 29 30 29 29 30 29 29 29 29 29 29 29 30 30 30 31 32 33 34 34 35 37 37 37 37 38 38 38 39
31 31 31 31 30 30 30 30 30 30 30 30 30 30 30 30 30 30 30 30 31 30 30 30 30 30 30 30 31 31 32 33 34 35 35 37 38 38 39 39 39 39 39
32 33 33 32 31 31 31 31 30 30 31 31 30 30 30 30 31 31 31 31 31 31 31 31 31 31 32 32 32 32 33 33 34 34 35 36 37 38 39 40 40 40 40
33 33 34 33 33 33 32 32 32 31 31 31 31 31 31 31 31 31 31 32 32 32 32 32 32 32 31 32 33 33 33 34 35 35 35 36 37 38 39 40 40 41 41
34 34 34 34 34 34 34 34 34 33 33 32 32 32 32 32 31 31 32 32 33 33 33 33 33 33 33 33 33 33 33 34 35 36 37 36 36 37 38 39 40 40 41
35 35 35 35 35 35 35 35 35 34 34 34 33 33 32 32 31 32 32 33 33 33 34 34 34 34 34 34 34 34 34 34 35 35 36 37 36 36 38 39 40 41 41
35 35 35 35 35 35 36 36 35 35 35 35 35 34 34 33 33 33 33 33 33 34 34 34 35 34 34 34 34 34 35 35 35 35 36 37 38 38 37 38 39 40 41
36 36 36 36 36 36 36 36 36 36 36 36 35 35 35 35 35 35 35 34 34 34 35 35 35 35 35 35 36 35 35 35 35 35 36 37 38 39 39 39 40 40 40

GEFSSE_500_meanwind_228.txt.gz
Wind_Speed
14 14 14 15 15 14 14 14 14 13 13 13 13 13 12 12 12 12 12 11 11 11 11 10 10 9 9 9 8 7 7 6 6 5 5 4 4 4 4 4 3 3 2
16 16 15 16 16 16 16 16 15 15 14 14 14 14 13 13 13 13 13 13 12 12 12 12 12 11 10 10 10 9 9 8 7 7 6 6 5 5 5 5 4 4 4
17 17 17 17 17 17 17 17 17 16 16 16 15 15 15 15 14 14 15 14 14 13 13 13 12 12 12 11 11 11 10 10 9 8 8 7 7 6 6 6 5 5 5
19 18 18 18 18 18 18 18 18 18 17 17 17 16 16 16 16 16 16 15 15 14 14 14 14 13 13 13 13 12 12 11 10 10 9 9 8 8 7 7 7 7 6
20 19 19 19 19 19 19 19 18 18 18 18 17 17 17 17 17 17 17 17 16 16 15 15 15 15 14 14 14 14 13 13 13 12 11 11 10 10 9 9 9 8 8
21 21 20 20 20 20 19 19 19 18 18 18 18 18 18 18 18 18 18 18 17 17 17 16 16 15 16 15 15 15 15 15 15 14 14 13 12 12 11 11 11 11 10
22 22 22 22 21 21 20 20 19 19 19 19 19 19 19 19 19 19 19 19 18 18 18 17 17 17 16 17 16 16 16 16 16 16 15 15 15 14 14 14 13 13 13
23 23 23 23 22 22 21 21 21 20 20 20 20 20 20 20 20 20 20 20 20 19 19 19 18 18 18 18 18 18 18 17 17 17 17 17 17 16 16 16 15 15 15
24 24 24 24 23 22 22 22 22 21 21 21 21 21 21 21 21 21 21 21 21 21 20 20 20 19 19 19 19 19 19 19 19 18 18 18 18 18 18 18 18 17 17
25 25 25 24 24 24 23 23 23 23 22 22 22 22 22 22 22 22 22 22 22 22 21 21 20 20 20 20 20 20 20 20 20 19 19 19 19 20 20 20 19 19 19
26 26 26 26 25 25 24 24 24 23 23 23 23 23 23 23 23 23 23 23 23 24 23 22 22 21 21 21 21 21 21 21 21 21 21 21 21 21 21 21 21 20 20
26 26 27 26 26 25 25 24 24 24 24 24 23 23 23 24 24 24 24 24 24 24 24 24 23 23 23 23 23 23 23 23 23 23 23 22 22 23 23 23 22 22 22
27 27 26 27 26 26 25 25 24 24 24 24 24 24 24 24 24 24 24 24 25 25 25 25 24 24 24 24 24 24 24 24 24 24 24 24 24 24 25 25 24 24 24
28 28 28 27 27 26 26 25 25 25 25 25 25 25 26 26 26 26 25 25 25 26 26 26 26 26 25 25 25 25 25 25 25 25 25 26 26 26 26 26 26 26 26
29 29 29 28 28 27 26 26 26 26 26 26 26 26 27 27 27 27 27 26 25 25 27 27 27 26 26 26 26 27 27 26 27 27 27 26 27 27 27 27 27 27 27
29 30 30 29 29 29 28 27 27 28 27 27 27 26 27 27 26 27 28 27 27 26 26 27 28 27 27 27 27 27 27 27 27 28 28 27 28 28 28 28 29 29 29
30 30 30 30 30 30 29 29 29 28 28 28 28 28 28 28 28 28 28 28 28 28 28 28 28 28 27 27 27 27 28 28 28 29 30 30 29 30 30 31 30 30 31
31 31 31 31 31 31 31 31 30 30 30 29 29 30 30 30 29 29 28 28 28 29 28 28 29 29 29 28 28 29 29 28 29 30 30 30 31 31 31 32 33 33 33
32 32 32 32 32 32 32 32 31 31 30 30 30 30 30 30 29 29 29 29 29 29 29 29 30 30 30 30 30 30 30 30 30 30 31 31 32 32 33 34 35 35 35
34 34 34 34 34 34 33 33 32 31 31 31 31 31 31 30 30 30 30 30 30 30 30 30 30 31 31 31 31 31 31 30 31 32 32 32 32 33 34 34 35 35 36
36 36 36 36 35 35 35 35 34 33 33 33 33 32 32 31 31 31 31 31 32 32 32 32 31 31 31 31 32 32 32 31 31 32 32 33 34 34 34 34 35 36 36
37 37 37 37 37 37 37 36 36 36 35 35 34 34 33 33 33 32 31 32 32 33 32 32 32 32 31 31 32 32 32 32 32 32 32 33 34 34 34 35 35 36 37
38 38 38 38 38 38 38 38 38 37 37 36 36 35 35 35 34 33 33 33 33 33 33 32 32 32 32 33 33 33 33 33 33 33 33 34 34 35 35 35 36 37 37
39 39 39 39 39 39 39 39 39 38 38 37 37 37 36 36 35 35 34 34 34 34 34 33 33 32 33 33 34 34 34 34 34 34 34 35 35 35 35 35 36 37 38
40 39 39 40 40 40 40 40 40 39 39 38 37 37 37 37 36 36 36 36 35 35 35 35 34 34 33 34 34 35 35 36 35 35 35 36 36 36 37 37 37 37 38
40 40 40 40 40 40 40 40 41 40 39 39 38 38 38 38 38 37 38 37 36 36 36 36 36 35 35 35 36 36 36 37 37 37 37 37 37 36 37 37 37 37 38

GEFSSE_500_meanwind_234.txt.gz
Wind_Speed
13 13 13 13 12 12 12 13 12 12 12 13 13 14 13 13 13 13 13 12 12 12 11 11 11 11 10 10 9 9 9 8 8 8 7 7 6 6 6 5 5 5 4
14 15 14 14 14 13 13 14 14 14 14 14 14 15 15 15 14 14 14 14 14 13 13 12 12 11 11 11 11 10 10 10 9 9 8 7 7 7 6 6 6 5 5
16 16 15 15 15 15 15 15 15 15 15 15 16 16 16 16 15 15 15 15 15 14 14 14 13 13 12 12 12 11 11 10 10 10 9 9 8 8 7 7 6 6 6
17 16 16 16 16 16 16 16 16 16 16 17 17 17 17 17 17 17 16 16 15 15 14 14 14 14 14 13 13 12 12 12 11 11 11 10 10 9 9 8 8 7 7
18 18 18 17 17 17 17 17 17 17 17 17 17 17 17 18 18 18 18 17 17 17 16 15 15 15 15 14 14 14 14 13 13 13 12 12 12 11 11 10 10 9 9
19 19 19 19 19 18 18 18 18 18 18 18 18 18 18 18 18 18 18 18 18 18 17 17 17 16 16 16 15 15 15 15 15 14 14 14 13 13 12 12 12 11 11
20 20 20 20 20 20 19 19 19 19 19 19 19 19 19 19 19 19 19 19 19 19 19 18 18 17 17 17 16 16 16 16 16 16 15 15 15 15 14 14 14 13 13
22 22 22 22 22 21 21 20 21 20 20 20 20 20 20 20 20 20 20 20 20 20 20 19 19 19 18 18 18 17 17 17 17 17 17 17 16 16 16 16 16 15 15
22 22 23 23 23 23 23 22 22 21 21 21 21 21 21 21 21 21 21 21 21 21 20 21 20 20 19 19 19 18 18 18 18 18 18 18 17 17 17 17 17 17 17
23 23 24 24 25 24 24 24 23 23 23 22 22 22 22 22 22 22 22 22 21 21 22 22 22 21 21 20 20 20 19 19 19 19 19 19 19 19 18 18 18 18 19
24 24 25 25 25 25 25 25 25 25 24 24 23 23 23 23 23 23 23 23 23 23 22 23 23 22 22 22 22 21 21 20 21 21 21 21 21 21 20 20 20 20 20
25 26 26 26 26 26 26 26 26 25 25 25 25 24 24 24 24 24 24 24 24 24 24 24 23 23 23 23 22 22 22 22 22 22 22 22 22 22 22 22 21 21 22
26 27 27 27 27 27 27 26 26 26 26 26 26 26 26 26 26 26 26 25 25 25 25 25 24 24 24 23 23 23 23 23 23 23 23 23 23 23 23 23 23 23 23
27 27 28 28 28 28 27 27 27 27 27 27 27 27 27 27 27 27 27 26 26 25 25 25 25 25 24 24 24 24 24 24 25 25 24 24 24 24 25 25 25 25 25
29 29 29 29 29 29 29 28 28 28 28 28 28 28 28 28 27 27 27 26 26 26 26 26 26 26 27 26 25 24 25 25 25 26 26 26 26 26 26 26 27 27 27
30 31 31 31 31 31 30 30 30 29 29 29 29 29 29 29 29 28 28 27 28 28 27 27 28 28 28 28 27 26 25 25 26 27 27 27 27 28 28 27 27 27 28
32 33 33 33 33 32 32 32 31 31 31 30 29 29 30 30 30 30 29 28 29 29 29 28 28 29 29 29 29 28 27 26 26 26 27 28 28 29 29 29 29 29 29
33 34 34 34 34 34 34 34 34 33 33 32 32 31 31 31 31 31 30 29 29 29 29 29 29 29 30 30 31 31 30 29 28 26 27 28 28 29 30 30 31 31 31
35 35 35 36 36 36 36 35 35 35 34 34 34 33 33 32 32 32 32 31 30 30 30 30 30 30 31 31 31 31 31 30 30 28 28 29 29 29 30 31 32 32 33
36 36 37 37 37 37 37 37 37 36 36 35 35 35 35 34 34 33 33 32 32 32 31 31 31 31 31 31 32 32 32 32 32 31 30 30 30 30 30 31 32 33 33
37 38 38 38 38 38 38 38 37 37 37 37 37 36 36 36 35 35 34 34 34 33 33 33 32 32 32 33 33 33 33 33 33 32 31 31 31 31 32 32 33 33 34
38 39 39 39 40 40 40 39 39 39 38 38 38 38 37 37 37 36 36 36 35 35 34 34 34 33 33 34 34 34 33 33 34 33 33 33 33 33 34 34 34 34 34
38 39 39 39 40 41 41 41 41 41 40 40 39 39 39 38 38 38 37 37 37 37 36 35 35 34 34 35 35 35 34 33 33 34 34 34 34 34 35 35 36 35 36
39 40 40 40 40 41 42 42 42 42 42 41 41 41 41 40 39 38 38 38 38 38 37 37 36 35 35 35 35 36 36 35 35 34 34 35 35 35 36 36 36 36 37
40 40 40 41 41 41 42 43 43 43 43 43 43 42 42 42 41 40 40 40 40 40 39 38 38 37 37 36 36 36 36 36 35 35 35 36 36 36 37 37 37 38 38
41 41 41 41 41 42 42 43 44 44 44 44 44 44 43 43 43 42 42 42 41 41 41 40 39 39 39 38 38 37 37 37 36 36 36 37 37 38 38 38 38 39 40

GEFSSE_500_meanwind_240.txt.gz
Wind_Speed
13 13 13 13 13 13 13 12 12 11 11 11 11 11 11 11 11 11 11 10 10 10 10 9 9 8 8 8 8 7 7 7 6 6 6 6 5 5 5 5 5 4 4
14 14 14 14 14 14 14 13 13 13 12 12 12 12 12 12 12 12 12 11 11 11 11 10 10 10 9 9 9 9 9 8 8 8 7 7 7 6 6 6 6 6 5
15 15 15 15 15 15 15 14 14 14 14 13 13 13 13 13 13 13 13 12 12 12 12 12 12 12 11 11 10 10 10 10 10 9 9 8 8 7 7 6 6 6 6
16 16 16 16 16 16 16 15 15 15 14 14 14 14 14 14 14 14 14 14 13 13 13 13 13 13 12 12 12 11 11 11 11 10 10 9 9 8 8 7 7 7 7
18 18 17 17 17 17 17 17 16 16 16 15 15 15 15 15 15 15 15 15 15 15 15 14 14 13 13 13 12 12 12 12 11 11 11 11 10 10 9 9 9 8 8
19 19 19 19 19 19 19 19 18 17 17 17 16 16 16 16 16 16 16 16 16 16 16 16 15 15 14 14 13 13 13 13 13 13 13 13 12 12 11 11 10 10 10
20 20 21 21 21 21 21 20 20 19 19 18 17 17 17 17 17 17 16 16 17 17 17 17 16 16 16 15 15 14 14 14 14 15 15 14 14 13 13 13 12 12 12
22 22 22 22 23 23 22 22 22 21 20 20 19 19 18 18 18 18 18 18 18 18 18 18 18 17 17 17 17 16 16 15 15 15 15 15 15 15 14 14 14 14 14
23 24 24 23 24 24 24 24 23 23 22 22 21 21 20 20 20 20 19 19 19 19 19 19 19 19 19 19 18 18 18 17 17 17 16 16 16 16 15 15 15 15 15
24 24 25 25 25 25 25 25 25 25 24 24 23 22 22 21 21 21 21 21 20 20 21 21 20 20 20 20 19 19 19 18 18 18 18 17 17 17 17 16 16 16 16
24 25 25 26 26 26 25 25 26 26 26 25 25 24 23 23 22 22 22 22 22 22 22 22 21 21 21 21 21 20 20 19 19 18 19 19 18 19 19 18 18 18 17
25 25 26 26 27 27 27 27 27 27 27 27 26 26 25 25 24 24 23 23 23 23 23 23 22 22 22 22 22 22 21 21 21 20 20 20 20 19 20 20 20 20 19
27 27 27 28 28 28 28 28 28 28 28 28 28 28 27 26 26 25 25 25 24 24 25 24 24 23 23 23 23 23 23 23 22 22 21 21 21 21 21 21 21 21 20
29 29 29 29 30 30 29 29 29 29 29 29 29 29 29 28 27 27 26 26 26 26 26 26 26 25 25 24 24 24 24 24 24 23 22 22 22 23 23 23 22 22 22
30 30 31 31 31 31 31 31 31 30 30 30 30 30 30 30 29 29 28 28 28 28 28 28 28 27 26 26 25 25 25 26 26 25 24 23 23 23 24 24 24 24 24
32 32 32 33 32 33 33 32 32 32 32 31 31 32 32 31 31 30 31 31 30 30 29 29 29 29 28 28 27 26 26 27 27 27 27 26 25 25 25 25 25 25 25
33 34 34 34 34 34 34 34 34 34 34 33 33 33 33 33 32 33 32 32 32 31 31 30 29 29 29 29 28 28 28 27 28 28 28 28 27 27 27 27 26 26 27
35 35 35 35 36 36 36 36 36 36 36 35 35 35 35 34 34 34 34 33 33 32 31 31 30 30 30 30 30 29 29 29 28 28 29 28 29 28 28 28 28 28 28
37 37 37 37 37 37 38 38 38 38 38 38 37 36 36 36 36 35 35 35 34 33 33 33 32 32 31 31 31 31 30 31 30 30 30 30 30 30 30 30 30 30 29
38 38 39 39 39 39 39 40 40 40 40 40 40 39 38 38 37 36 36 36 36 35 35 35 34 34 33 33 33 32 32 32 32 32 32 32 31 30 30 31 31 31 30
40 41 41 41 41 40 40 41 42 42 42 42 42 42 41 40 39 38 38 37 37 36 36 37 37 36 34 34 34 34 34 33 33 33 33 33 32 31 31 31 31 31 31
42 42 42 42 42 42 42 42 43 43 43 44 44 44 44 43 42 41 40 39 38 38 37 37 37 37 37 36 36 36 35 35 34 34 34 34 34 34 33 32 32 32 32
43 43 43 43 43 44 43 43 44 44 44 45 45 45 45 44 44 43 42 41 40 40 39 38 38 38 37 38 37 37 36 36 36 36 35 35 35 35 35 34 33 34 33
43 43 44 44 44 44 44 44 44 45 45 46 46 46 46 45 45 45 44 43 42 42 41 39 39 39 39 39 38 38 38 37 37 37 37 37 36 35 35 35 35 36 35
44 44 45 46 45 45 45 45 45 45 46 47 46 47 47 47 46 46 45 45 44 44 43 42 41 41 41 40 40 39 39 38 37 38 38 38 37 37 36 36 36 37 37
44 45 45 46 46 46 45 45 45 45 46 46 46 47 47 47 47 47 47 46 46 46 45 45 44 43 43 42 42 41 40 40 39 39 38 38 38 38 37 37 37 37 37

GEFSSE_500_meanwind_246.txt.gz
Wind_Speed
13 14 13 13 13 13 13 12 13 13 13 13 13 13 13 12 12 12 11 11 10 10 10 10 9 9 9 8 8 8 7 7 7 7 6 6 6 6 6 5 5 5 5
15 15 14 15 14 14 14 14 14 14 14 14 14 14 14 14 14 13 13 13 12 12 12 11 11 10 10 10 9 9 9 9 8 8 8 8 7 7 7 6 6 6 6
16 16 15 15 15 15 15 15 15 15 15 15 15 15 15 15 14 14 14 14 13 13 13 13 12 12 11 11 11 11 11 10 10 9 9 9 9 8 8 8 8 7 7
17 17 16 16 16 16 16 16 16 16 16 16 16 16 16 15 15 15 15 15 14 14 14 14 14 13 13 12 12 12 12 12 12 11 11 10 10 10 9 9 9 8 8
17 18 18 18 18 18 18 18 17 18 18 17 17 17 17 17 16 16 17 16 16 16 15 15 15 15 15 14 14 13 13 13 13 12 12 12 11 11 11 10 10 10 9
19 19 19 19 19 19 19 19 19 19 19 19 18 18 18 18 18 18 17 17 17 17 17 17 16 16 16 16 15 15 14 14 13 13 13 13 13 12 12 12 11 11 11
20 20 21 21 21 21 21 21 21 21 21 20 20 20 19 19 19 19 19 19 18 18 18 18 18 17 17 17 17 16 15 15 14 14 14 14 14 14 13 13 13 13 12
21 21 22 22 23 23 23 23 23 23 23 23 22 22 21 20 20 20 20 20 19 19 18 18 18 19 18 18 17 17 16 16 16 15 15 15 15 15 14 14 14 14 14
22 23 23 23 24 24 25 25 25 25 25 25 25 24 23 22 21 21 21 20 20 20 19 19 19 19 19 19 18 18 18 18 17 17 17 16 16 16 16 15 15 15 15
23 24 24 25 25 26 26 26 27 26 26 26 26 26 26 25 24 23 22 22 22 21 21 20 20 20 20 20 20 19 19 19 19 18 18 18 18 18 18 17 16 16 16
25 26 26 26 26 27 27 28 28 28 28 28 28 28 28 27 27 25 24 23 23 23 23 22 21 21 21 21 21 21 20 20 20 20 20 19 19 19 19 18 18 17 17
27 27 27 28 28 28 28 29 29 30 30 29 29 29 30 29 28 28 26 26 25 24 24 24 23 23 23 22 22 22 22 22 22 21 21 21 20 20 20 20 19 19 19
28 28 28 28 28 29 29 30 30 30 30 31 30 30 31 31 30 29 29 28 27 26 26 25 25 25 24 24 24 24 23 23 23 23 23 23 22 21 21 21 21 21 20
30 30 30 31 30 30 30 31 31 31 32 32 32 32 32 33 32 31 30 29 29 29 28 27 27 27 26 26 25 25 25 25 25 24 24 24 23 23 22 22 22 22 21
32 32 32 33 33 33 32 32 33 32 33 34 33 33 33 33 34 33 32 31 31 30 30 29 28 28 28 28 27 27 26 26 26 26 25 25 25 25 24 24 24 24 23
34 34 35 35 35 34 34 34 34 34 35 36 36 35 35 35 35 35 34 33 33 32 31 31 31 31 30 30 29 29 28 28 27 27 27 26 26 26 26 26 25 25 25
36 36 37 37 37 36 37 36 35 35 35 35 36 37 37 36 36 36 36 35 34 34 34 34 33 33 32 31 31 30 30 29 29 28 28 28 27 28 28 27 27 27 27
39 39 38 39 39 39 39 38 37 37 37 37 37 38 38 38 38 38 38 38 38 37 36 35 36 35 34 33 33 32 32 31 31 30 30 30 29 29 29 29 28 27 27
40 40 40 40 41 41 41 40 40 39 39 39 39 40 40 41 41 41 40 40 40 40 39 38 37 36 36 36 35 34 34 33 33 32 32 32 31 30 30 30 30 29 28
42 42 42 43 43 43 42 42 41 41 40 40 41 42 42 42 43 42 42 43 42 42 41 40 39 39 38 37 37 36 36 36 35 34 34 33 33 33 32 32 32 31 30
43 43 43 44 44 44 43 43 43 42 42 42 42 42 43 43 43 44 44 45 44 44 43 42 41 41 40 40 39 38 38 37 36 36 35 35 34 34 34 33 33 33 33
42 43 43 44 45 45 44 44 44 44 43 43 44 44 44 44 44 45 46 46 46 45 44 43 43 42 41 41 41 40 39 39 38 38 37 37 36 36 35 34 34 34 34
42 42 43 43 44 45 45 45 46 46 46 45 45 45 45 45 45 46 46 46 47 46 46 45 44 44 43 42 42 42 41 41 40 39 39 38 38 37 36 36 35 35 35
42 42 43 43 44 45 45 46 47 47 47 47 47 46 46 47 47 47 47 48 48 48 47 47 46 45 45 45 44 44 44 43 42 41 40 40 40 39 38 37 37 36 36
43 43 43 44 44 45 45 47 48 48 48 49 48 48 48 48 48 48 48 49 49 49 48 48 48 47 47 46 46 45 45 44 44 43 42 42 41 41 39 38 38 37 37
42 43 44 45 45 45 45 47 48 49 49 50 50 50 49 49 49 49 49 50 50 50 50 49 49 49 49 48 48 47 46 45 45 44 44 43 43 42 41 40 39 39 38

GEFSSE_500_meanwind_252.txt.gz
Wind_Speed
13 13 13 14 14 14 14 14 14 13 13 13 13 14 14 14 14 14 13 13 13 12 12 11 11 10 10 10 9 9 8 8 7 6 6 6 6 5 5 4 4 4 4
14 14 14 15 15 15 15 15 15 14 14 15 14 15 15 15 15 15 15 14 14 14 13 13 12 11 11 11 11 10 10 9 9 8 8 7 7 7 6 6 5 5 5
15 15 15 15 15 16 16 16 16 16 16 16 16 15 16 16 16 16 16 16 15 15 15 14 14 13 13 12 12 11 11 11 10 10 9 9 8 8 8 7 7 7 6
16 16 16 17 17 17 17 17 17 17 17 17 17 17 17 17 16 17 17 17 16 16 16 15 15 15 14 14 13 13 12 12 12 11 11 10 10 10 9 9 8 8 8
16 17 17 18 18 18 18 18 18 18 18 18 18 18 18 17 17 17 17 17 18 17 17 16 16 16 16 16 15 14 14 13 13 12 12 12 11 11 11 10 10 9 9
17 17 18 18 18 18 19 19 20 20 20 19 19 19 19 19 19 18 18 18 19 18 18 18 17 17 17 17 17 16 15 15 14 13 13 13 13 12 12 11 11 11 10
18 18 19 19 20 20 20 20 21 22 22 21 21 21 21 20 20 20 20 19 19 20 20 19 19 18 18 18 18 18 18 17 16 15 15 15 14 14 13 13 13 13 12
19 19 20 21 21 21 21 21 22 23 23 23 23 22 22 22 22 22 21 21 20 20 20 20 20 20 19 19 19 19 19 18 18 17 17 16 15 15 15 14 13 13 13
21 21 21 22 22 23 23 23 24 24 24 24 24 24 24 24 23 23 23 23 22 22 21 21 21 21 21 20 20 21 20 19 19 18 18 17 16 16 16 15 15 14 14
23 23 23 23 24 24 25 25 25 25 25 26 26 26 26 26 25 25 25 25 24 24 23 23 22 21 22 22 21 21 21 21 20 19 19 19 18 18 17 17 16 16 15
24 24 24 24 25 26 26 26 27 27 27 27 28 28 28 28 28 27 27 27 26 26 25 25 24 23 23 23 23 22 22 22 22 21 20 20 19 19 19 18 18 17 16
25 26 26 26 27 27 28 28 29 29 29 29 30 30 30 30 30 30 29 29 28 28 27 26 26 25 24 24 24 23 23 23 22 22 22 21 21 21 20 20 19 19 18
27 27 27 28 28 28 29 29 30 30 30 31 31 32 32 32 32 32 31 31 30 30 29 28 28 27 27 26 26 25 25 24 23 23 23 23 23 22 22 21 21 20 20
29 29 30 30 30 31 31 31 31 31 32 32 33 33 34 34 34 34 34 33 32 32 31 30 30 29 29 28 28 27 26 26 25 24 24 24 24 24 23 23 22 22 21
31 32 32 33 33 33 34 34 34 33 34 34 34 35 35 35 35 35 35 35 35 34 33 32 32 31 31 30 30 29 28 27 26 26 26 25 25 25 25 24 24 23 23
33 34 35 35 35 36 36 36 36 36 36 36 35 35 36 35 36 36 37 37 37 36 35 35 34 33 33 33 31 31 30 29 28 27 27 27 27 26 26 26 25 25 24
35 36 37 37 38 38 39 39 39 38 38 37 37 37 37 37 37 38 38 38 38 38 38 37 36 35 35 35 34 32 32 31 30 29 29 28 28 28 28 27 27 26 26
37 38 38 39 40 40 41 41 41 40 40 39 39 39 39 39 39 39 40 40 40 40 40 39 39 37 37 37 36 35 33 33 32 31 31 30 30 29 29 29 28 28 28
39 39 40 41 42 42 42 43 43 42 41 41 42 41 40 40 40 40 41 41 41 41 42 41 41 40 39 39 38 37 37 36 35 34 33 32 32 31 30 30 30 30 30
41 41 42 42 43 43 43 43 43 43 43 43 43 43 43 42 41 42 43 43 43 43 43 43 43 42 41 41 40 40 39 39 38 37 36 35 34 33 32 32 32 31 31
41 42 43 44 44 44 44 44 44 44 43 43 43 44 44 43 43 42 43 43 44 44 45 45 45 45 44 44 43 42 42 41 41 39 38 37 37 36 34 34 34 33 33
42 43 44 44 45 45 45 45 45 45 44 44 43 43 44 45 45 44 44 44 44 45 46 46 46 46 46 46 46 45 44 43 43 42 41 40 39 38 36 36 36 35 34
42 43 44 45 45 45 45 45 45 45 46 45 45 45 44 45 46 46 45 45 46 46 47 47 47 47 47 47 47 46 46 45 44 43 43 42 41 40 39 38 37 37 36
42 43 44 45 45 45 45 45 45 46 46 46 46 45 45 46 46 47 46 45 46 47 47 48 48 48 48 48 47 47 47 47 46 46 45 43 43 42 41 39 39 39 39
43 43 44 45 45 46 46 46 46 46 46 46 46 46 46 46 47 47 47 47 47 47 48 49 49 49 49 49 48 47 48 48 48 48 46 46 45 44 43 42 41 41 40
44 44 44 45 45 46 46 46 46 46 47 47 47 46 46 47 47 48 49 49 49 48 48 49 50 49 50 50 49 48 48 48 48 48 48 47 47 46 45 44 43 43 42

GEFSSE_500_meanwind_258.txt.gz
Wind_Speed
9 10 10 10 10 10 11 11 11 11 12 12 13 13 13 13 13 13 14 14 13 13 13 13 12 12 11 11 11 11 10 10 10 8 8 7 7 6 6 6 6 6 6
10 10 11 11 11 11 11 12 12 12 13 13 14 14 15 15 14 14 15 15 15 14 15 15 14 14 13 13 13 12 12 11 11 10 9 9 8 8 7 7 7 7 6
11 11 12 12 12 12 12 12 13 13 14 14 15 15 16 16 16 16 16 16 16 16 15 15 15 15 15 15 14 14 13 12 12 11 11 10 10 9 8 8 8 8 7
12 12 13 13 13 13 14 14 14 15 15 15 16 16 17 17 17 17 17 16 17 17 17 17 16 16 16 16 16 15 14 14 13 13 12 11 11 11 10 10 9 9 8
13 14 14 14 15 15 15 16 16 16 17 17 17 18 18 18 18 18 18 18 18 18 17 18 18 17 17 17 17 17 16 15 15 14 13 13 12 12 12 11 11 10 10
14 15 15 16 16 16 16 17 17 18 18 18 18 19 19 20 20 20 19 19 19 19 19 19 18 19 19 18 18 17 17 16 16 16 15 15 14 14 13 14 13 12 12
16 16 17 17 18 18 18 18 19 19 19 19 20 20 21 21 21 21 21 21 20 20 20 20 20 19 19 19 19 19 18 18 18 18 17 17 16 16 15 15 15 14 14
17 17 18 19 19 20 20 20 20 20 20 20 21 21 21 22 22 22 22 22 21 21 21 21 21 21 20 20 20 20 20 19 19 19 19 18 17 17 17 16 16 16 15
19 19 20 20 21 21 21 20 21 21 21 21 22 22 22 23 23 24 23 23 23 23 23 23 23 22 22 22 21 21 21 21 21 21 21 20 19 19 18 17 17 17 16
21 21 22 22 22 22 22 22 22 23 23 23 23 24 24 25 25 26 25 25 25 25 25 25 25 25 24 24 24 23 23 23 22 22 22 22 21 20 20 19 19 18 18
23 23 23 23 23 23 23 23 24 24 25 25 25 26 26 27 27 28 28 28 28 28 27 27 27 27 27 26 26 25 25 25 25 24 24 24 23 22 22 21 20 20 20
25 24 24 24 25 25 25 25 26 26 27 27 27 28 29 29 30 30 31 31 30 30 30 29 29 29 28 28 27 27 27 26 26 26 25 25 24 24 24 23 22 21 21
27 26 26 27 27 27 27 28 28 28 29 30 30 30 31 31 32 32 33 33 33 33 32 32 31 31 30 30 29 29 29 28 27 27 27 26 26 26 25 25 24 23 23
29 29 29 29 29 29 30 30 30 31 31 31 32 33 33 33 34 35 35 35 35 35 35 34 34 34 33 32 31 31 31 30 29 29 29 28 27 28 27 26 25 25 24
32 32 32 32 32 32 32 32 33 33 33 33 34 34 35 36 36 36 37 37 37 37 37 36 36 36 35 34 33 32 32 32 31 31 30 30 29 29 29 28 27 26 26
33 33 34 34 34 34 34 35 35 35 35 36 36 36 37 38 38 38 38 39 39 39 39 38 38 37 37 36 35 34 34 34 33 32 32 31 31 30 30 30 29 28 28
34 35 35 35 36 36 36 37 37 37 37 37 38 38 38 38 39 39 39 40 40 40 40 40 40 39 39 39 38 37 36 36 35 35 34 33 32 32 32 31 30 30 29
36 36 36 37 37 37 38 39 39 39 39 40 40 40 40 39 40 40 41 40 40 41 41 41 41 41 41 41 40 39 39 38 37 37 36 35 35 34 33 33 32 31 30
37 37 38 38 38 39 39 39 41 41 41 42 42 42 42 42 41 41 42 42 42 42 43 43 42 43 42 42 41 41 41 40 39 39 39 38 37 36 35 34 33 33 32
38 38 39 39 39 40 40 41 42 43 43 43 43 43 43 43 43 43 43 43 43 43 43 43 44 44 43 43 43 42 42 42 42 41 41 40 40 39 38 37 36 35 34
38 38 39 40 40 40 41 42 43 43 44 44 44 45 44 44 44 45 45 45 44 44 44 44 44 45 45 45 45 44 44 43 44 44 43 43 43 42 41 40 39 38 37
38 39 40 41 42 42 43 43 44 45 44 44 45 45 46 46 46 46 46 46 46 46 45 45 45 45 46 46 46 46 45 45 46 45 45 45 45 44 43 43 42 41 40
40 41 42 42 43 44 44 45 45 46 46 45 45 46 47 47 47 48 47 47 47 47 47 47 46 46 46 47 47 47 47 47 47 48 47 46 46 45 45 45 44 43 42
42 43 43 44 44 45 45 46 47 47 47 47 46 46 47 47 48 48 48 48 48 48 48 49 48 48 48 48 48 48 49 48 49 49 49 49 48 48 48 47 46 45 44
43 44 45 45 46 46 46 47 47 48 48 48 48 48 48 48 48 48 49 48 48 48 48 49 51 50 50 50 50 49 50 51 51 51 50 50 50 50 49 48 48 47 45
44 45 46 46 47 48 48 48 48 47 48 49 49 49 49 49 49 49 48 48 48 48 48 50 51 51 52 51 51 51 50 51 52 52 52 51 51 51 51 50 50 49 48

GEFSSE_500_meanwind_264.txt.gz
Wind_Speed
7 7 7 8 8 8 9 9 9 9 9 10 10 10 10 10 10 10 10 10 10 10 10 10 10 10 10 10 9 9 9 8 8 8 8 8 8 7 7 7 6 6 6
9 9 9 9 9 10 10 10 10 10 11 11 11 11 12 12 11 11 11 11 11 11 11 11 11 11 11 11 11 10 10 10 10 9 10 9 8 8 8 7 7 7 7
10 10 10 10 10 11 11 12 12 12 12 12 13 13 13 13 13 13 13 13 12 12 12 12 12 12 12 12 12 12 12 11 11 11 11 11 10 9 9 8 8 8 7
11 11 12 12 12 12 13 13 13 14 14 14 14 14 14 14 14 14 14 14 14 14 14 13 13 13 13 13 13 13 13 13 13 12 12 12 12 11 11 10 10 10 9
12 13 13 13 14 14 14 15 15 15 15 15 15 15 16 16 16 16 16 15 15 15 15 15 15 15 14 14 14 14 14 14 14 14 14 13 13 12 12 12 12 11 11
14 14 15 15 15 15 16 16 16 16 17 17 16 16 16 17 17 17 17 17 16 16 16 16 16 16 16 15 15 15 15 15 16 15 15 14 14 14 13 13 13 13 13
15 16 16 16 17 17 17 18 18 18 18 17 17 17 17 18 18 18 18 19 19 18 18 18 18 18 17 17 17 17 16 16 17 16 16 16 16 15 15 15 15 14 14
17 17 18 18 18 19 19 19 19 19 19 18 18 19 19 19 19 19 20 20 20 20 20 19 19 19 19 19 19 19 18 18 18 18 18 17 17 17 17 16 17 16 16
18 19 19 20 20 20 20 20 20 20 20 20 20 20 20 21 21 22 21 21 21 22 22 22 21 21 21 21 21 20 20 20 19 19 19 19 19 19 19 19 18 18 18
20 20 21 21 21 21 21 21 21 21 21 22 21 21 22 22 23 23 23 23 24 24 24 24 24 23 23 23 23 23 23 22 22 21 21 21 21 21 21 21 21 20 19
22 22 22 23 23 23 23 23 23 23 23 23 23 23 23 24 25 25 25 26 26 26 27 27 27 26 26 25 25 25 25 25 25 24 23 23 23 22 22 23 22 22 21
24 24 24 25 25 25 25 25 25 25 25 25 25 25 26 26 27 27 28 28 29 29 29 29 30 29 29 29 28 28 28 28 28 27 27 26 25 25 24 24 24 24 23
26 27 26 27 27 28 28 28 28 28 27 27 27 28 28 29 29 30 30 31 31 31 31 31 32 32 32 32 32 31 31 31 30 30 29 29 28 27 26 26 25 25 25
29 29 29 29 30 30 30 30 30 30 30 29 29 29 30 30 31 32 32 33 33 33 34 34 34 34 35 35 34 34 34 33 33 33 32 31 30 29 29 28 28 27 26
31 32 32 32 32 32 32 32 32 32 32 32 32 32 32 32 33 34 34 34 35 36 36 36 36 36 36 37 36 36 36 36 35 35 34 34 33 32 31 30 29 28 28
33 34 34 35 35 35 35 35 36 36 35 35 34 34 35 35 36 36 36 36 37 38 38 39 39 38 38 37 38 38 38 38 38 37 37 36 35 34 33 32 31 30 29
34 35 36 36 37 37 38 38 38 38 38 37 37 37 38 38 38 38 39 39 39 40 41 41 41 40 40 40 40 39 39 39 40 40 39 39 38 37 36 34 34 33 32
37 37 38 38 39 39 39 40 39 40 40 40 39 40 40 40 40 40 40 41 41 41 42 42 42 42 41 41 41 41 41 41 41 41 41 40 40 39 38 37 36 35 34
39 39 39 39 39 40 41 41 41 41 41 41 41 41 42 42 42 42 42 42 42 42 42 42 42 42 42 42 42 42 42 43 42 42 42 41 41 40 40 39 38 37 36
40 40 40 40 41 42 43 43 43 43 43 43 43 43 43 43 44 44 44 44 44 44 44 44 44 43 43 42 43 43 43 44 44 44 44 43 42 42 42 42 41 40 39
41 41 42 43 43 43 43 44 44 44 44 44 44 44 44 44 45 45 45 45 46 46 45 46 46 46 45 44 44 44 44 44 45 45 45 45 45 44 44 43 43 42 41
42 43 43 44 45 45 45 45 46 46 46 47 46 46 46 46 46 46 47 46 47 47 47 47 47 47 47 48 47 46 45 45 45 46 46 46 46 46 45 45 45 44 44
43 44 44 45 46 47 47 47 48 48 48 48 49 49 48 48 48 48 48 49 48 49 49 49 48 48 48 48 48 48 47 47 47 47 47 47 48 48 47 47 47 46 45
44 45 45 46 47 47 47 48 49 50 50 50 51 51 51 51 51 50 50 50 50 51 50 50 51 50 50 49 49 50 50 49 49 48 49 49 49 50 49 49 48 47 46
45 46 46 47 47 48 48 49 49 50 50 50 51 51 52 52 52 52 51 51 51 52 51 52 52 51 51 51 50 51 51 50 51 51 50 49 49 50 50 50 50 48 48
45 46 46 47 48 48 49 49 49 50 50 50 51 52 52 53 53 53 52 52 53 52 52 53 53 53 53 53 51 51 51 51 51 52 51 50 50 51 51 51 51 51 50